This demonstration page uses our WeatherBlox Daily Observations layout. Learn more.

Left ArrowRight Arrow

Hourly Observations for August 3, 2022

Temp ( °F °C ) Dew Point ( °F °C ) Humidity (%) Winds ( mph kmh ) Pressure ( in mb ) Visibility ( mi km ) Precip ( " mm )
12:52 am 00:52 Mostly Cloudy 84 28.9 72 22.2 67 67 SSE 13 20 29.64 1004 10 16 0.00 0.00
1:52 am 01:52 Mostly Cloudy 86 30 69 20.6 57 57 S 12 19 29.64 1004 10 16 0.00 0.00
2:52 am 02:52 Cloudy 85 29.4 68 20 57 57 S 13 20 29.62 1003 10 16 0.00 0.00
3:52 am 03:52 Cloudy 87 30.6 68 20 53 53 WSW 9 15 29.67 1005 10 16 0.00 0.00
4:52 am 04:52 Cloudy 88 31.1 67 19.4 50 50 SW 10 17 29.65 1004 10 16 0.00 0.00
5:52 am 05:52 Cloudy with Light Rain 82 27.8 65 18.3 56 56 W 10 17 29.67 1005 10 16 0.00 0.00
6:52 am 06:52 Cloudy with Light Rain 80 26.7 70 21.1 71 71 S 7 11 29.67 1005 10 16 0.00 0.00
7:00 am 07:00 Cloudy with Thunderstorms 78 25.6 72 22.2 82 82 E 3 6 29.66 1005 10 16 0.00 0.00
7:27 am 07:27 Mostly Cloudy 77 25 72 22.2 85 85 NNW 3 6 29.69 1005 10 16 0.00 0.00
7:34 am 07:34 Mostly Cloudy with Thunderstorms 78 25.6 71 21.7 79 79 Calm 29.68 1005 10 16 0.00 0.00
7:47 am 07:47 Mostly Cloudy with Nearby Thunderstorms 79 26 72 22 79 79 VRB 3 6 29.67 1005 10 16 0.00 0.00
7:52 am 07:52 Mostly Cloudy with Nearby Thunderstorms 79 26.1 73 22.8 82 82 SSW 3 6 29.68 1005 10 16 0.00 0.00
7:54 am 07:54 Mostly Cloudy with Thunderstorms 79 26.1 72 22.2 79 79 SW 5 7 29.67 1005 10 16 0.00 0.00
8:27 am 08:27 Mostly Cloudy 79 26.1 72 22.2 79 79 SE 5 7 29.65 1004 10 16 0.01 0.25
8:52 am 08:52 Mostly Cloudy 80 26.7 72 22.2 76 76 Calm 29.68 1005 10 16 0.01 0.25
9:52 am 09:52 Mostly Cloudy 82 27.8 74 23.3 77 77 ESE 5 7 29.69 1006 10 16 0.00 0.00
10:52 am 10:52 Mostly Cloudy 88 31.1 73 22.8 61 61 SSE 3 6 29.72 1007 10 16 0.00 0.00
11:52 am 11:52 Mostly Cloudy 90 32.2 71 21.7 54 54 VRB 3 6 29.74 1007 10 16 0.00 0.00
12:52 pm 12:52 Mostly Cloudy 92 33.3 70 21.1 49 49 Calm 29.75 1007 10 16 0.00 0.00
1:52 pm 13:52 Mostly Cloudy 92 33.3 67 19.4 44 44 Calm 29.75 1008 10 16 0.00 0.00
2:52 pm 14:52 Mostly Cloudy 93 33.9 70 21.1 47 47 NNE 7 11 29.77 1008 10 16 0.00 0.00
3:52 pm 15:52 Mostly Cloudy 93 33.9 70 21.1 47 47 N 3 6 29.78 1008 10 16 0.00 0.00
4:52 pm 16:52 Partly Cloudy 94 34.4 71 21.7 48 48 Calm 29.78 1009 10 16 0.00 0.00
5:52 pm 17:52 Mostly Sunny 93 33.9 72 22.2 50 50 ESE 6 9 29.79 1009 10 16 0.00 0.00
6:52 pm 18:52 Partly Cloudy 92 33.3 72 22.2 52 52 Calm 29.80 1009 10 16 0.00 0.00
7:52 pm 19:52 Mostly Sunny 89 31.7 72 22.2 57 57 N 15 24 29.81 1010 10 16 0.00 0.00
8:52 pm 20:52 Mostly Clear 83 28.3 70 21.1 65 65 NNE 10 17 29.85 1011 10 16 0.00 0.00
9:52 pm 21:52 Clear 79 26.1 70 21.1 74 74 N 7 11 29.90 1012 10 16 0.00 0.00
10:52 pm 22:52 Clear 76 24.4 70 21.1 82 82 N 6 9 29.92 1013 10 16 0.00 0.00
11:52 pm 23:52 Clear 73 22.8 68 20 84 84 NNW 6 9 29.93 1014 10 16 0.00 0.00

Powered by AerisWeather